Regional Weather Roundup
Issued by NWS

Home | Current Version | Previous Version | Graphics & Text | Print | Product List | Glossary On
Versions: 1 2 3 4 5 6 7 8 9 10 11 12 13 14 15 16 17 18 19 20 21 22 23 24 25 26 27 28 29 30 31 32 33 34 35 36 37 38 39 40 41 42 43 44 45 46 47 48 49 50
000
ASUS43 KFSD 041302
RWRSD

WEATHER ROUNDUP FOR SOUTH DAKOTA
NATIONAL WEATHER SERVICE SIOUX FALLS SD
800 AM CDT SAT JUL 04 2015

NOTE: "FAIR" INDICATES FEW OR NO CLOUDS BELOW 12,000 FEET WITH NO
SIGNIFICANT WEATHER AND/OR OBSTRUCTIONS TO VISIBILITY.


SDZ001>005-009-010-012>017-041400-
NORTHWEST AND NORTH CENTRAL SOUTH DAKOTA

CITY           SKY/WX    TMP DP  RH WIND       PRES   REMARKS
BUFFALO          N/A     65  61  87 S5        29.79S
FAITH            N/A     66  60  81 S15       29.84F
MOBRIDGE       MOSUNNY   70  67  90 SE14      29.84F
$$

SDZ012>016-024>037-041>051-057-063-072>074-041400-
SOUTHWEST AND SOUTH CENTRAL SOUTH DAKOTA

CITY           SKY/WX    TMP DP  RH WIND       PRES   REMARKS
RAPID CTY ARPT SUNNY     64  61  90 SE9       29.87F
PIERRE         MOSUNNY   66  63  90 SE8       29.86F
CUSTER         SUNNY     60  55  83 W3        30.02F HAZE
ELLSWORTH AFB  MOSUNNY   67  60  77 S8        29.86S
PHILIP         PTSUNNY   66  63  90 E6        29.86F FOG
PINE RIDGE     MOSUNNY   69  59  70 S21G28    29.90F
WINNER         FAIR      70  60  70 S15       29.91S
$$

SDZ004>011-016>023-039-040-041400-
NORTHEAST SOUTH DAKOTA

CITY           SKY/WX    TMP DP  RH WIND       PRES   REMARKS
ABERDEEN       SUNNY     66  63  90 S7        29.90S FOG
WATERTOWN      MOSUNNY   66  63  90 SE6       29.94F FOG
BROOKINGS      MOSUNNY   64  61  88 S6        29.97S
SISSETON         N/A     66  64  93 SE5       29.91S
$$

SDZ017-020-022-023-036>040-048>070-041400-
SOUTHEAST SOUTH DAKOTA

CITY           SKY/WX    TMP DP  RH WIND       PRES   REMARKS
SIOUX FALLS    SUNNY     65  62  90 S5        29.97R FOG
HURON          MOSUNNY   65  63  93 S8        29.91S FOG
CHAMBERLAIN    MOSUNNY   67  65  91 SE3       29.92S
MITCHELL       MOSUNNY   67  64  90 S9        29.94S
YANKTON        SUNNY     63  61  94 CALM      29.96S
$$

ABBREVIATIONS USED IN REMARKS
   TC - TEMPERATURE IN CELSIUS
  WCI - WIND CHILL INDEX
   HX - HEAT INDEX
  VSB - VISIBILITY



USA.gov is the U.S. government's official web portal to all federal, state and local government web resources and services.